Date String (YYYY-MM-DD hh:mm:ss) UTC,Instrument flags,Ambient pressure (hPa),Sample flow (lpm),Bypass flow (lpm),Sample temperature (°C),Ambient temperature (°C),ASC tube jacket temperature (°C),LED temperature (°C),Box temperature (°C),Sample RH (%),Span deviation,Mass concentration (μg/m³),Mass concentration (μg/m³),Mass concentration (μg/m³)
DateTimeUTC,F1_M11,P_M11,Q1_M11,Q2_M11,T1_M11,T2_M11,T3_M11,T4_M11,T5_M11,U1_M11,ZSPAN_M11,X0_M11,X2_M11,X1_M11
2022-05-20 06:00:00,,0814.9,5.01,0.00,28.9,27.7,00.0,37.9,30.7,14.4,0000.0,0014.35,0003.42,0001.86
2022-05-20 06:01:00,,0815.0,4.99,0.00,28.9,27.7,00.0,37.9,30.7,14.4,0000.0,0012.73,0003.45,0001.87
2022-05-20 06:02:00,,0815.1,5.01,0.00,28.9,27.7,00.0,37.9,30.7,14.4,0000.0,0011.88,0003.47,0001.87
2022-05-20 06:03:00,,0815.0,5.00,0.00,28.9,27.7,00.0,37.9,30.6,14.4,0000.0,0011.78,0003.44,0001.88
2022-05-20 06:04:00,,0814.9,5.00,0.00,28.9,27.7,00.0,37.9,30.6,14.5,0000.0,0012.03,0003.37,0001.88
2022-05-20 06:05:00,,0814.9,5.00,0.00,28.8,27.7,00.0,37.9,30.5,14.5,0000.0,0011.82,0003.34,0001.88
2022-05-20 06:06:00,,0814.9,5.01,0.00,28.8,27.6,00.0,37.9,30.5,14.5,0000.0,0010.91,0003.36,0001.90
2022-05-20 06:07:00,,0814.9,5.00,0.00,28.8,27.6,00.0,37.9,30.5,14.5,0000.0,0010.47,0003.33,0001.91
2022-05-20 06:08:00,,0814.9,5.00,0.00,28.8,27.6,00.0,37.9,30.5,14.5,0000.0,0010.08,0003.32,0001.92
2022-05-20 06:09:00,,0814.9,4.99,0.00,28.8,27.6,00.0,37.9,30.5,14.6,0000.0,0010.23,0003.32,0001.92
2022-05-20 06:10:00,,0815.0,5.00,0.00,28.8,27.5,00.0,37.8,30.5,14.6,0000.0,0010.71,0003.34,0001.93
2022-05-20 06:11:00,,0814.9,5.00,0.00,28.7,27.5,00.0,37.8,30.4,14.5,0000.0,0012.51,0003.33,0001.95
2022-05-20 06:12:00,,0815.1,5.00,0.00,28.7,27.5,00.0,37.8,30.4,14.5,0000.0,0012.68,0003.29,0001.96
2022-05-20 06:13:00,,0815.4,5.00,0.00,28.7,27.4,00.0,37.8,30.3,14.6,0000.0,0012.95,0003.31,0001.97
2022-05-20 06:14:00,,0814.9,5.00,0.00,28.6,27.4,00.0,37.8,30.3,14.6,0000.0,0012.74,0003.37,0001.98
2022-05-20 06:15:00,,0814.9,4.99,0.00,28.6,27.3,00.0,37.8,30.3,14.6,0000.0,0011.99,0003.37,0001.99
2022-05-20 06:16:00,,0814.9,5.00,0.00,28.6,27.3,00.0,37.7,30.2,14.6,0000.0,0012.00,0003.38,0002.02
2022-05-20 06:17:00,,0814.8,5.00,0.00,28.5,27.2,00.0,37.7,30.2,14.7,0000.0,0013.01,0003.38,0002.02
2022-05-20 06:18:00,,0814.8,5.00,0.00,28.5,27.2,00.0,37.7,30.2,14.7,0000.0,0012.85,0003.38,0002.02
2022-05-20 06:19:00,,0814.9,5.01,0.00,28.5,27.2,00.0,37.7,30.1,14.7,0000.0,0012.82,0003.36,0002.04
2022-05-20 06:20:00,,0814.9,5.00,0.00,28.5,27.1,00.0,37.6,30.1,14.7,0000.0,0013.32,0003.41,0002.06
2022-05-20 06:21:00,,0814.7,5.00,0.00,28.4,27.1,00.0,37.6,30.1,14.8,0000.0,0014.23,0003.43,0002.06
2022-05-20 06:22:00,,0814.9,5.00,0.00,28.4,27.1,00.0,37.6,30.1,14.8,0000.0,0013.54,0003.44,0002.06
2022-05-20 06:23:00,,0815.0,5.00,0.00,28.4,27.0,00.0,37.6,30.0,14.8,0000.0,0013.77,0003.49,0002.05
2022-05-20 06:24:00,,0814.8,5.00,0.00,28.4,27.0,00.0,37.5,30.0,14.9,0000.0,0013.66,0003.47,0002.04
2022-05-20 06:25:00,,0815.0,4.99,0.00,28.3,26.9,00.0,37.5,30.0,14.9,0000.0,0014.70,0003.42,0002.03
2022-05-20 06:26:00,,0814.8,5.00,0.00,28.3,26.9,00.0,37.5,29.9,14.9,0000.0,0015.01,0003.44,0002.02
2022-05-20 06:27:00,,0814.8,4.99,0.00,28.3,26.9,00.0,37.5,29.9,15.0,0000.0,0014.99,0003.45,0002.00
2022-05-20 06:28:00,,0814.9,5.00,0.00,28.2,26.9,00.0,37.4,29.9,15.0,0000.0,0014.24,0003.44,0001.99
2022-05-20 06:29:00,,0815.1,5.01,0.00,28.2,26.9,00.0,37.4,29.8,15.0,0000.0,0014.64,0003.47,0001.98
2022-05-20 06:30:00,,0814.9,5.00,0.00,28.2,26.8,00.0,37.4,29.8,15.0,0000.0,0015.46,0003.49,0001.96
2022-05-20 06:31:00,,0814.9,4.99,0.00,28.2,26.8,00.0,37.4,29.8,15.0,0000.0,0014.62,0003.48,0001.94
2022-05-20 06:32:00,,0814.9,5.00,0.00,28.1,26.8,00.0,37.3,29.8,15.0,0000.0,0013.28,0003.44,0001.93
2022-05-20 06:33:00,,0815.1,5.00,0.00,28.1,26.8,00.0,37.3,29.8,15.0,0000.0,0012.81,0003.43,0001.92
2022-05-20 06:34:00,,0815.0,4.99,0.00,28.1,26.8,00.0,37.3,29.8,15.0,0000.0,0013.22,0003.39,0001.90
2022-05-20 06:35:00,,0815.0,5.01,0.00,28.1,26.8,00.0,37.3,29.8,15.0,0000.0,0013.69,0003.42,0001.90
2022-05-20 06:36:00,,0814.9,4.99,0.00,28.1,26.8,00.0,37.3,29.8,15.0,0000.0,0012.78,0003.44,0001.89
2022-05-20 06:37:00,,0814.9,5.00,0.00,28.1,26.8,00.0,37.2,29.8,15.0,0000.0,0013.52,0003.44,0001.88
2022-05-20 06:38:00,,0815.0,5.00,0.00,28.0,26.8,00.0,37.2,29.8,15.0,0000.0,0014.43,0003.45,0001.86
2022-05-20 06:39:00,,0815.2,5.00,0.00,28.0,26.8,00.0,37.2,29.8,15.0,0000.0,0015.25,0003.49,0001.86
2022-05-20 06:40:00,,0815.4,5.00,0.00,28.0,26.8,00.0,37.2,29.8,15.0,0000.0,0015.66,0003.54,0001.86
2022-05-20 06:41:00,,0815.2,5.00,0.00,28.0,26.8,00.0,37.2,29.8,15.0,0000.0,0015.37,0003.54,0001.87
2022-05-20 06:42:00,,0815.3,5.00,0.00,28.0,26.8,00.0,37.1,29.8,15.0,0000.0,0015.29,0003.52,0001.87
2022-05-20 06:43:00,,0815.3,5.00,0.00,28.1,26.8,00.0,37.1,29.8,15.0,0000.0,0015.30,0003.53,0001.88
2022-05-20 06:44:00,,0815.3,4.98,0.00,28.0,26.8,00.0,37.1,29.8,14.9,0000.0,0015.62,0003.56,0001.89
2022-05-20 06:45:00,,0815.3,5.00,0.00,28.0,26.8,00.0,37.1,29.8,14.9,0000.0,0015.76,0003.60,0001.90
2022-05-20 06:46:00,,0815.3,5.00,0.00,28.0,26.7,00.0,37.1,29.7,14.8,0000.0,0015.91,0003.59,0001.89
2022-05-20 06:47:00,,0815.2,5.01,0.00,28.0,26.7,00.0,37.1,29.7,14.8,0000.0,0015.88,0003.55,0001.90
2022-05-20 06:48:00,,0815.3,5.00,0.00,27.9,26.7,00.0,37.1,29.6,14.8,0000.0,0014.90,0003.54,0001.90
2022-05-20 06:49:00,,0815.4,5.00,0.00,27.9,26.7,00.0,37.1,29.6,14.8,0000.0,0013.81,0003.53,0001.91
2022-05-20 06:50:00,,0815.4,4.99,0.00,27.9,26.6,00.0,37.0,29.6,14.8,0000.0,0013.04,0003.50,0001.90
2022-05-20 06:51:00,,0815.4,5.00,0.00,27.9,26.6,00.0,37.0,29.6,14.8,0000.0,0012.58,0003.43,0001.88
2022-05-20 06:52:00,,0815.4,4.99,0.00,27.8,26.6,00.0,37.0,29.5,14.8,0000.0,0012.93,0003.37,0001.87
2022-05-20 06:53:00,,0815.4,5.00,0.00,27.8,26.6,00.0,37.0,29.5,14.8,0000.0,0013.68,0003.32,0001.86
2022-05-20 06:54:00,,0815.3,5.00,0.00,27.8,26.6,00.0,37.0,29.5,14.8,0000.0,0013.70,0003.31,0001.85
2022-05-20 06:55:00,,0815.4,5.00,0.00,27.8,26.6,00.0,36.9,29.5,14.8,0000.0,0013.14,0003.28,0001.83
2022-05-20 06:56:00,,0815.4,5.00,0.00,27.8,26.5,00.0,36.9,29.5,14.8,0000.0,0012.90,0003.23,0001.82
2022-05-20 06:57:00,,0815.4,5.00,0.00,27.8,26.5,00.0,36.9,29.5,14.8,0000.0,0012.35,0003.17,0001.80
2022-05-20 06:58:00,,0815.4,5.01,0.00,27.8,26.5,00.0,36.9,29.4,14.8,0000.0,0011.89,0003.09,0001.78
2022-05-20 06:59:00,,0815.4,5.00,0.00,27.7,26.5,00.0,36.9,29.4,14.8,0000.0,0011.96,0003.05,0001.77
